Time,TemperatureF,DewpointF,PressureIn,WindDirection,WindDirectionDegrees,WindSpeedMPH,WindSpeedGustMPH,Humidity,HourlyPrecipIn,Conditions,Clouds,dailyrainin,SoftwareType,DateUTC
2013-01-20 00:00:00,49.0,31.1,29.87,SW,225,7.2,7.2,50,0.00,,,0.00,WUHU216HW,2013-01-20 05:00:00,
2013-01-20 00:02:00,49.0,31.1,29.87,SSW,203,2.2,7.2,50,0.00,,,0.00,WUHU216HW,2013-01-20 05:02:00,
2013-01-20 00:03:00,49.0,31.1,29.87,SSW,203,2.2,7.2,50,0.00,,,0.00,WUHU216HW,2013-01-20 05:03:00,
2013-01-20 00:08:00,48.8,31.0,29.87,NNE,23,2.7,7.2,50,0.00,,,0.00,WUHU216HW,2013-01-20 05:08:00,
2013-01-20 00:13:00,48.8,31.4,29.87,South,180,7.2,9.2,51,0.00,,,0.00,WUHU216HW,2013-01-20 05:13:00,
2013-01-20 00:18:00,48.8,31.4,29.87,SSW,203,3.4,9.2,51,0.00,,,0.00,WUHU216HW,2013-01-20 05:18:00,
2013-01-20 00:23:00,48.6,31.2,29.86,West,270,4.0,8.5,51,0.00,,,0.00,WUHU216HW,2013-01-20 05:23:00,
2013-01-20 00:28:00,48.6,31.7,29.86,NE,45,9.2,9.2,52,0.00,,,0.00,WUHU216HW,2013-01-20 05:28:00,
2013-01-20 00:33:00,48.2,31.9,29.86,SSE,158,3.4,9.2,53,0.00,,,0.00,WUHU216HW,2013-01-20 05:33:00,
2013-01-20 00:38:00,48.1,31.7,29.85,ESE,113,3.4,6.5,53,0.00,,,0.00,WUHU216HW,2013-01-20 05:38:00,
2013-01-20 00:43:00,47.9,32.0,29.85,SSW,203,3.8,12.1,54,0.00,,,0.00,WUHU216HW,2013-01-20 05:43:00,
2013-01-20 00:48:00,47.9,32.0,29.86,West,270,5.6,12.1,54,0.00,,,0.00,WUHU216HW,2013-01-20 05:48:00,
2013-01-20 00:53:00,47.9,32.4,29.85,North,0,4.0,8.3,55,0.00,,,0.00,WUHU216HW,2013-01-20 05:53:00,
2013-01-20 00:58:00,47.7,32.2,29.85,SW,225,6.3,6.3,55,0.00,,,0.00,WUHU216HW,2013-01-20 05:58:00,
2013-01-20 01:03:00,47.5,32.6,29.85,SSE,158,4.0,8.5,56,0.00,,,0.00,WUHU216HW,2013-01-20 06:03:00,
2013-01-20 01:08:00,47.3,32.4,29.84,West,270,2.7,9.2,56,0.00,,,0.00,WUHU216HW,2013-01-20 06:08:00,
2013-01-20 01:13:00,47.3,32.9,29.84,WSW,248,3.8,9.2,57,0.00,,,0.00,WUHU216HW,2013-01-20 06:13:00,
2013-01-20 01:18:00,47.3,32.9,29.84,West,270,6.9,6.9,57,0.00,,,0.00,WUHU216HW,2013-01-20 06:18:00,
2013-01-20 01:23:00,47.2,33.1,29.84,South,180,7.4,7.6,58,0.00,,,0.00,WUHU216HW,2013-01-20 06:23:00,
2013-01-20 01:28:00,47.2,33.1,29.84,SSE,158,5.1,7.6,58,0.00,,,0.00,WUHU216HW,2013-01-20 06:28:00,
2013-01-20 01:33:00,47.0,33.0,29.84,NNW,338,8.5,8.5,58,0.00,,,0.00,WUHU216HW,2013-01-20 06:33:00,
2013-01-20 01:38:00,46.8,32.8,29.84,ESE,113,5.1,8.5,58,0.00,,,0.00,WUHU216HW,2013-01-20 06:38:00,
2013-01-20 01:43:00,46.8,33.2,29.84,WNW,293,5.1,8.5,59,0.00,,,0.00,WUHU216HW,2013-01-20 06:43:00,
2013-01-20 01:48:00,46.8,33.2,29.84,SSW,203,6.3,6.7,59,0.00,,,0.00,WUHU216HW,2013-01-20 06:48:00,
2013-01-20 01:53:00,46.6,33.0,29.85,SSW,203,6.9,8.5,59,0.00,,,0.00,WUHU216HW,2013-01-20 06:53:00,
2013-01-20 01:58:00,46.6,33.0,29.84,SE,135,4.3,8.5,59,0.00,,,0.00,WUHU216HW,2013-01-20 06:58:00,
2013-01-20 02:03:00,46.4,33.3,29.84,SSE,158,8.1,8.1,60,0.00,,,0.00,WUHU216HW,2013-01-20 07:03:00,
2013-01-20 02:08:00,46.4,33.3,29.85,NW,315,2.5,8.1,60,0.00,,,0.00,WUHU216HW,2013-01-20 07:08:00,
2013-01-20 02:13:00,46.4,33.3,29.85,SSW,203,4.9,5.1,60,0.00,,,0.00,WUHU216HW,2013-01-20 07:13:00,
2013-01-20 02:18:00,46.3,33.1,29.85,South,180,8.7,8.7,60,0.00,,,0.00,WUHU216HW,2013-01-20 07:18:00,
2013-01-20 02:23:00,46.3,33.6,29.85,South,180,4.5,8.7,61,0.00,,,0.00,WUHU216HW,2013-01-20 07:23:00,
2013-01-20 02:28:00,46.3,33.6,29.85,SSW,203,6.5,8.1,61,0.00,,,0.00,WUHU216HW,2013-01-20 07:28:00,
2013-01-20 02:33:00,46.3,33.6,29.85,West,270,5.4,8.1,61,0.00,,,0.00,WUHU216HW,2013-01-20 07:33:00,
2013-01-20 02:38:00,46.3,33.9,29.86,NW,315,6.7,6.9,62,0.00,,,0.00,WUHU216HW,2013-01-20 07:38:00,
2013-01-20 02:43:00,46.1,33.8,29.86,SE,135,2.0,6.9,62,0.00,,,0.00,WUHU216HW,2013-01-20 07:43:00,
2013-01-20 02:48:00,46.1,33.8,29.87,SE,135,4.3,6.3,62,0.00,,,0.00,WUHU216HW,2013-01-20 07:48:00,
2013-01-20 02:53:00,46.1,33.8,29.87,SW,225,5.4,7.4,62,0.00,,,0.00,WUHU216HW,2013-01-20 07:53:00,
2013-01-20 02:58:00,46.1,33.8,29.87,West,270,6.3,7.4,62,0.00,,,0.00,WUHU216HW,2013-01-20 07:58:00,
2013-01-20 03:03:00,46.1,33.8,29.87,South,180,4.9,6.3,62,0.00,,,0.00,WUHU216HW,2013-01-20 08:03:00,
2013-01-20 03:08:00,46.1,33.8,29.87,South,180,5.4,8.3,62,0.00,,,0.00,WUHU216HW,2013-01-20 08:08:00,
2013-01-20 03:13:00,45.9,33.6,29.87,West,270,2.5,8.3,62,0.00,,,0.00,WUHU216HW,2013-01-20 08:13:00,
2013-01-20 03:18:00,45.7,33.0,29.87,NW,315,5.4,7.2,61,0.00,,,0.00,WUHU216HW,2013-01-20 08:18:00,
2013-01-20 03:23:00,45.5,32.9,29.88,SW,225,2.5,6.0,61,0.00,,,0.00,WUHU216HW,2013-01-20 08:23:00,
2013-01-20 03:28:00,45.4,32.7,29.88,South,180,4.0,6.0,61,0.00,,,0.00,WUHU216HW,2013-01-20 08:28:00,
2013-01-20 03:33:00,45.2,32.6,29.89,West,270,6.3,6.3,61,0.00,,,0.00,WUHU216HW,2013-01-20 08:33:00,
2013-01-20 03:38:00,45.0,30.7,29.89,ESE,113,5.8,8.9,57,0.00,,,0.00,WUHU216HW,2013-01-20 08:38:00,
2013-01-20 03:43:00,44.8,31.0,29.89,SW,225,3.6,9.8,58,0.00,,,0.00,WUHU216HW,2013-01-20 08:43:00,
2013-01-20 03:48:00,44.6,30.3,29.90,West,270,6.0,9.8,57,0.00,,,0.00,WUHU216HW,2013-01-20 08:48:00,
2013-01-20 03:53:00,44.3,29.5,29.90,WSW,248,2.9,8.1,56,0.00,,,0.00,WUHU216HW,2013-01-20 08:53:00,
2013-01-20 03:58:00,43.9,29.2,29.91,East,90,4.9,7.6,56,0.00,,,0.00,WUHU216HW,2013-01-20 08:58:00,
2013-01-20 04:03:00,43.7,29.0,29.91,ESE,113,3.4,8.1,56,0.00,,,0.00,WUHU216HW,2013-01-20 09:03:00,
2013-01-20 04:08:00,43.6,29.3,29.91,NNW,338,1.8,8.1,57,0.00,,,0.00,WUHU216HW,2013-01-20 09:08:00,
2013-01-20 04:13:00,43.4,28.7,29.91,SW,225,4.3,6.7,56,0.00,,,0.00,WUHU216HW,2013-01-20 09:13:00,
2013-01-20 04:18:00,43.0,27.5,29.92,South,180,5.8,5.8,54,0.00,,,0.00,WUHU216HW,2013-01-20 09:18:00,
2013-01-20 04:23:00,42.8,27.3,29.92,North,0,3.1,10.3,54,0.00,,,0.00,WUHU216HW,2013-01-20 09:23:00,
2013-01-20 04:28:00,42.7,26.6,29.93,SSW,203,4.5,10.3,53,0.00,,,0.00,WUHU216HW,2013-01-20 09:28:00,
2013-01-20 04:33:00,42.5,26.9,29.93,SW,225,3.4,7.8,54,0.00,,,0.00,WUHU216HW,2013-01-20 09:33:00,
2013-01-20 04:38:00,42.3,26.4,29.93,SSW,203,6.9,7.2,53,0.00,,,0.00,WUHU216HW,2013-01-20 09:38:00,
2013-01-20 04:43:00,42.1,25.8,29.93,SSE,158,4.0,7.2,52,0.00,,,0.00,WUHU216HW,2013-01-20 09:43:00,
2013-01-20 04:48:00,41.8,25.4,29.94,SSW,203,5.1,6.9,52,0.00,,,0.00,WUHU216HW,2013-01-20 09:48:00,
2013-01-20 04:53:00,41.6,25.7,29.94,West,270,7.8,7.8,53,0.00,,,0.00,WUHU216HW,2013-01-20 09:53:00,
2013-01-20 04:58:00,41.4,25.0,29.95,ENE,68,6.0,7.8,52,0.00,,,0.00,WUHU216HW,2013-01-20 09:58:00,
2013-01-20 05:03:00,41.2,25.3,29.95,NE,45,4.0,6.5,53,0.00,,,0.00,WUHU216HW,2013-01-20 10:03:00,
2013-01-20 05:08:00,41.2,25.3,29.95,SW,225,3.4,5.4,53,0.00,,,0.00,WUHU216HW,2013-01-20 10:08:00,
2013-01-20 05:13:00,40.9,24.9,29.96,NW,315,2.2,5.6,53,0.00,,,0.00,WUHU216HW,2013-01-20 10:13:00,
2013-01-20 05:18:00,40.7,24.8,29.97,WSW,248,6.0,7.6,53,0.00,,,0.00,WUHU216HW,2013-01-20 10:18:00,
2013-01-20 05:23:00,39.2,23.9,29.98,West,270,4.3,7.6,54,0.00,,,0.00,WUHU216HW,2013-01-20 10:23:00,
2013-01-20 05:28:00,38.0,22.8,29.99,ENE,68,5.6,8.5,54,0.00,,,0.00,WUHU216HW,2013-01-20 10:28:00,
2013-01-20 05:32:00,37.4,22.2,30.00,North,0,5.4,8.5,54,0.00,,,0.00,WUHU216HW,2013-01-20 10:32:00,
2013-01-20 05:37:00,36.9,20.4,30.01,SSW,203,3.4,8.1,51,0.00,,,0.00,WUHU216HW,2013-01-20 10:37:00,
2013-01-20 05:42:00,36.4,19.5,30.01,WSW,248,3.4,7.6,50,0.00,,,0.00,WUHU216HW,2013-01-20 10:42:00,
2013-01-20 05:47:00,36.2,20.3,30.02,NNW,338,2.5,7.6,52,0.00,,,0.00,WUHU216HW,2013-01-20 10:47:00,
2013-01-20 05:52:00,35.6,20.2,30.03,SW,225,2.9,6.3,53,0.00,,,0.00,WUHU216HW,2013-01-20 10:52:00,
2013-01-20 05:57:00,35.3,20.7,30.04,North,0,6.5,6.5,55,0.00,,,0.00,WUHU216HW,2013-01-20 10:57:00,
2013-01-20 06:02:00,34.9,20.8,30.04,SE,135,4.0,6.5,56,0.00,,,0.00,WUHU216HW,2013-01-20 11:02:00,
2013-01-20 06:07:00,34.4,18.9,30.05,NW,315,2.5,6.9,53,0.00,,,0.00,WUHU216HW,2013-01-20 11:07:00,
2013-01-20 06:12:00,33.7,18.3,30.05,NW,315,3.1,6.9,53,0.00,,,0.00,WUHU216HW,2013-01-20 11:12:00,
2013-01-20 06:17:00,33.3,17.5,30.06,SW,225,4.5,6.7,52,0.00,,,0.00,WUHU216HW,2013-01-20 11:17:00,
2013-01-20 06:22:00,32.8,17.5,30.07,SSE,158,4.9,6.7,53,0.00,,,0.00,WUHU216HW,2013-01-20 11:22:00,
2013-01-20 06:27:00,32.4,17.1,30.07,NNW,338,6.9,6.9,53,0.00,,,0.00,WUHU216HW,2013-01-20 11:27:00,
2013-01-20 06:32:00,32.2,16.9,30.08,WSW,248,4.0,6.9,53,0.00,,,0.00,WUHU216HW,2013-01-20 11:32:00,
2013-01-20 06:37:00,32.0,16.4,30.08,SW,225,6.0,6.5,52,0.00,,,0.00,WUHU216HW,2013-01-20 11:37:00,
2013-01-20 06:42:00,31.9,17.0,30.08,South,180,1.1,6.0,54,0.00,,,0.00,WUHU216HW,2013-01-20 11:42:00,
2013-01-20 06:47:00,31.9,17.5,30.09,NNW,338,3.8,5.6,55,0.00,,,0.00,WUHU216HW,2013-01-20 11:47:00,
2013-01-20 06:52:00,31.9,17.9,30.09,SSW,203,2.5,5.6,56,0.00,,,0.00,WUHU216HW,2013-01-20 11:52:00,
2013-01-20 06:57:00,31.5,17.6,30.10,SSE,158,1.1,6.0,56,0.00,,,0.00,WUHU216HW,2013-01-20 11:57:00,
2013-01-20 07:02:00,31.3,17.8,30.10,WNW,293,1.8,6.0,57,0.00,,,0.00,WUHU216HW,2013-01-20 12:02:00,
2013-01-20 07:07:00,31.3,18.3,30.10,West,270,2.5,4.0,58,0.00,,,0.00,WUHU216HW,2013-01-20 12:07:00,
2013-01-20 07:12:00,31.3,18.6,30.11,WSW,248,2.0,3.4,59,0.00,,,0.00,WUHU216HW,2013-01-20 12:12:00,
2013-01-20 07:17:00,31.1,18.9,30.11,NW,315,2.9,3.1,60,0.00,,,0.00,WUHU216HW,2013-01-20 12:17:00,
2013-01-20 07:22:00,31.0,19.4,30.12,WNW,293,8.5,8.5,62,0.00,,,0.00,WUHU216HW,2013-01-20 12:22:00,
2013-01-20 07:27:00,30.8,20.0,30.13,North,0,3.8,8.5,64,0.00,,,0.00,WUHU216HW,2013-01-20 12:27:00,
2013-01-20 07:32:00,30.6,19.8,30.13,SSW,203,6.0,6.7,64,0.00,,,0.00,WUHU216HW,2013-01-20 12:32:00,
2013-01-20 07:37:00,30.4,19.6,30.14,ESE,113,4.9,6.0,64,0.00,,,0.00,WUHU216HW,2013-01-20 12:37:00,
2013-01-20 07:42:00,30.2,19.4,30.15,South,180,2.2,7.8,64,0.00,,,0.00,WUHU216HW,2013-01-20 12:42:00,
2013-01-20 07:47:00,30.2,19.1,30.16,SE,135,1.6,7.8,63,0.00,,,0.00,WUHU216HW,2013-01-20 12:47:00,
2013-01-20 07:52:00,30.2,19.4,30.16,NE,45,4.0,4.7,64,0.00,,,0.00,WUHU216HW,2013-01-20 12:52:00,
2013-01-20 07:57:00,30.1,19.3,30.17,WNW,293,5.8,6.9,64,0.00,,,0.00,WUHU216HW,2013-01-20 12:57:00,
2013-01-20 08:02:00,30.1,19.3,30.17,SSW,203,2.5,6.9,64,0.00,,,0.00,WUHU216HW,2013-01-20 13:02:00,
2013-01-20 08:07:00,29.9,19.4,30.17,WSW,248,1.6,4.9,65,0.00,,,0.00,WUHU216HW,2013-01-20 13:07:00,
2013-01-20 08:12:00,29.5,19.2,30.17,SW,225,2.5,5.1,65,0.00,,,0.00,WUHU216HW,2013-01-20 13:12:00,
2013-01-20 08:17:00,29.2,18.8,30.17,NNW,338,2.7,7.4,65,0.00,,,0.00,WUHU216HW,2013-01-20 13:17:00,
2013-01-20 08:22:00,28.8,18.2,30.17,WSW,248,3.1,7.4,64,0.00,,,0.00,WUHU216HW,2013-01-20 13:22:00,
2013-01-20 08:27:00,28.4,17.8,30.16,NNW,338,3.4,5.4,64,0.00,,,0.00,WUHU216HW,2013-01-20 13:27:00,
2013-01-20 08:32:00,28.4,17.5,30.16,NNW,338,3.1,6.3,63,0.00,,,0.00,WUHU216HW,2013-01-20 13:32:00,
2013-01-20 08:37:00,28.4,17.1,30.16,NNW,338,3.1,6.3,62,0.00,,,0.00,WUHU216HW,2013-01-20 13:37:00,
2013-01-20 08:42:00,28.3,16.9,30.16,NW,315,4.0,4.9,62,0.00,,,0.00,WUHU216HW,2013-01-20 13:42:00,
2013-01-20 08:47:00,28.1,16.7,30.16,SW,225,2.2,4.9,62,0.00,,,0.00,WUHU216HW,2013-01-20 13:47:00,
2013-01-20 08:52:00,27.7,16.4,30.17,South,180,1.8,8.7,62,0.00,,,0.00,WUHU216HW,2013-01-20 13:52:00,
2013-01-20 08:57:00,27.5,16.2,30.18,WSW,248,1.8,8.7,62,0.00,,,0.00,WUHU216HW,2013-01-20 13:57:00,
2013-01-20 09:03:00,27.5,16.2,30.19,NW,315,4.7,6.5,62,0.00,,,0.00,WUHU216HW,2013-01-20 14:03:00,
2013-01-20 09:08:00,27.4,16.0,30.19,West,270,1.1,4.7,62,0.00,,,0.00,WUHU216HW,2013-01-20 14:08:00,
2013-01-20 09:13:00,27.2,15.8,30.20,WNW,293,4.7,6.7,62,0.00,,,0.00,WUHU216HW,2013-01-20 14:13:00,
2013-01-20 09:18:00,26.8,16.2,30.20,NW,315,3.4,6.9,64,0.00,,,0.00,WUHU216HW,2013-01-20 14:18:00,
2013-01-20 09:23:00,26.5,15.8,30.21,North,0,5.1,6.9,64,0.00,,,0.00,WUHU216HW,2013-01-20 14:23:00,
2013-01-20 09:28:00,26.1,15.5,30.21,WNW,293,3.4,6.3,64,0.00,,,0.00,WUHU216HW,2013-01-20 14:28:00,
2013-01-20 09:33:00,25.9,16.0,30.22,SSW,203,5.6,6.3,66,0.00,,,0.00,WUHU216HW,2013-01-20 14:33:00,
2013-01-20 09:38:00,25.7,15.8,30.22,South,180,2.9,6.0,66,0.00,,,0.00,WUHU216HW,2013-01-20 14:38:00,
2013-01-20 09:43:00,25.7,16.2,30.22,SSE,158,6.0,6.0,67,0.00,,,0.00,WUHU216HW,2013-01-20 14:43:00,
2013-01-20 09:48:00,25.7,16.2,30.23,North,0,2.7,6.0,67,0.00,,,0.00,WUHU216HW,2013-01-20 14:48:00,
2013-01-20 09:53:00,25.7,15.8,30.23,NW,315,4.3,4.9,66,0.00,,,0.00,WUHU216HW,2013-01-20 14:53:00,
2013-01-20 09:58:00,25.7,15.8,30.24,SW,225,3.4,4.3,66,0.00,,,0.00,WUHU216HW,2013-01-20 14:58:00,
2013-01-20 10:03:00,25.7,15.6,30.24,NNE,23,2.5,7.4,65,0.00,,,0.00,WUHU216HW,2013-01-20 15:03:00,
2013-01-20 10:08:00,25.6,15.0,30.25,NNW,338,6.5,7.4,64,0.00,,,0.00,WUHU216HW,2013-01-20 15:08:00,
2013-01-20 10:13:00,25.6,14.7,30.25,NW,315,8.5,8.5,63,0.00,,,0.00,WUHU216HW,2013-01-20 15:13:00,
2013-01-20 10:18:00,25.4,14.5,30.26,WNW,293,5.6,8.5,63,0.00,,,0.00,WUHU216HW,2013-01-20 15:18:00,
2013-01-20 10:23:00,25.0,13.8,30.26,NNW,338,4.7,6.9,62,0.00,,,0.00,WUHU216HW,2013-01-20 15:23:00,
2013-01-20 10:28:00,25.0,14.1,30.27,North,0,3.4,6.9,63,0.00,,,0.00,WUHU216HW,2013-01-20 15:28:00,
2013-01-20 10:33:00,24.8,14.0,30.27,NNW,338,4.0,5.6,63,0.00,,,0.00,WUHU216HW,2013-01-20 15:33:00,
2013-01-20 10:38:00,24.8,13.3,30.28,East,90,6.3,6.5,61,0.00,,,0.00,WUHU216HW,2013-01-20 15:38:00,
2013-01-20 10:43:00,24.8,13.3,30.29,ESE,113,1.8,7.4,61,0.00,,,0.00,WUHU216HW,2013-01-20 15:43:00,
2013-01-20 10:48:00,24.7,13.2,30.29,NW,315,3.8,7.4,61,0.00,,,0.00,WUHU216HW,2013-01-20 15:48:00,
2013-01-20 10:53:00,24.8,13.0,30.29,West,270,2.7,7.4,60,0.00,,,0.00,WUHU216HW,2013-01-20 15:53:00,
2013-01-20 10:58:00,24.8,13.0,30.30,WNW,293,5.4,7.2,60,0.00,,,0.00,WUHU216HW,2013-01-20 15:58:00,
2013-01-20 11:03:00,24.8,13.0,30.30,NNW,338,1.8,7.2,60,0.00,,,0.00,WUHU216HW,2013-01-20 16:03:00,
2013-01-20 11:08:00,24.8,13.0,30.30,North,0,4.0,8.1,60,0.00,,,0.00,WUHU216HW,2013-01-20 16:08:00,
2013-01-20 11:13:00,24.7,12.8,30.30,WNW,293,4.9,8.1,60,0.00,,,0.00,WUHU216HW,2013-01-20 16:13:00,
2013-01-20 11:18:00,24.8,13.0,30.30,SW,225,7.2,8.5,60,0.00,,,0.00,WUHU216HW,2013-01-20 16:18:00,
2013-01-20 11:23:00,24.8,13.0,30.30,SE,135,4.5,8.9,60,0.00,,,0.00,WUHU216HW,2013-01-20 16:23:00,
2013-01-20 11:28:00,24.8,13.3,30.29,NE,45,2.5,8.9,61,0.00,,,0.00,WUHU216HW,2013-01-20 16:28:00,
2013-01-20 11:33:00,25.0,13.2,30.30,WNW,293,6.9,6.9,60,0.00,,,0.00,WUHU216HW,2013-01-20 16:33:00,
2013-01-20 11:38:00,24.8,13.0,30.30,East,90,4.9,6.9,60,0.00,,,0.00,WUHU216HW,2013-01-20 16:38:00,
2013-01-20 11:43:00,24.7,13.2,30.29,East,90,4.5,6.3,61,0.00,,,0.00,WUHU216HW,2013-01-20 16:43:00,
2013-01-20 11:48:00,24.3,12.4,30.30,NW,315,2.0,6.3,60,0.00,,,0.00,WUHU216HW,2013-01-20 16:48:00,
2013-01-20 11:53:00,23.9,12.8,30.30,NE,45,1.8,5.4,62,0.00,,,0.00,WUHU216HW,2013-01-20 16:53:00,
2013-01-20 11:58:00,23.9,13.2,30.30,NNW,338,2.0,5.4,63,0.00,,,0.00,WUHU216HW,2013-01-20 16:58:00,
2013-01-20 12:03:00,24.1,12.6,30.29,NW,315,0.9,5.6,61,0.00,,,0.00,WUHU216HW,2013-01-20 17:03:00,
2013-01-20 12:08:00,24.1,11.8,30.30,South,180,2.0,5.6,59,0.00,,,0.00,WUHU216HW,2013-01-20 17:08:00,
2013-01-20 12:13:00,24.1,11.8,30.30,SSW,203,4.0,4.7,59,0.00,,,0.00,WUHU216HW,2013-01-20 17:13:00,
2013-01-20 12:18:00,24.1,11.8,30.30,SW,225,4.0,5.1,59,0.00,,,0.00,WUHU216HW,2013-01-20 17:18:00,
2013-01-20 12:23:00,24.1,11.8,30.30,South,180,1.6,5.1,59,0.00,,,0.00,WUHU216HW,2013-01-20 17:23:00,
2013-01-20 12:28:00,24.3,12.0,30.30,West,270,0.9,4.0,59,0.00,,,0.00,WUHU216HW,2013-01-20 17:28:00,
2013-01-20 12:33:00,24.1,12.2,30.30,WNW,293,1.1,6.3,60,0.00,,,0.00,WUHU216HW,2013-01-20 17:33:00,
2013-01-20 12:38:00,24.7,12.3,30.30,ESE,113,1.8,6.9,59,0.00,,,0.00,WUHU216HW,2013-01-20 17:38:00,
2013-01-20 12:43:00,25.4,12.6,30.30,North,0,2.2,6.9,58,0.00,,,0.00,WUHU216HW,2013-01-20 17:43:00,
2013-01-20 12:48:00,24.7,12.0,30.30,WSW,248,3.8,5.4,58,0.00,,,0.00,WUHU216HW,2013-01-20 17:48:00,
2013-01-20 12:53:00,24.1,11.0,30.30,SE,135,2.9,5.4,57,0.00,,,0.00,WUHU216HW,2013-01-20 17:53:00,
2013-01-20 12:58:00,24.1,11.4,30.30,WNW,293,3.4,4.7,58,0.00,,,0.00,WUHU216HW,2013-01-20 17:58:00,
2013-01-20 13:03:00,24.1,11.8,30.30,North,0,1.8,4.7,59,0.00,,,0.00,WUHU216HW,2013-01-20 18:03:00,
2013-01-20 13:08:00,24.1,11.4,30.30,WSW,248,1.1,4.9,58,0.00,,,0.00,WUHU216HW,2013-01-20 18:08:00,
2013-01-20 13:13:00,24.3,11.6,30.30,SSW,203,1.1,4.9,58,0.00,,,0.00,WUHU216HW,2013-01-20 18:13:00,
2013-01-20 13:18:00,24.3,12.0,30.30,WSW,248,1.1,5.4,59,0.00,,,0.00,WUHU216HW,2013-01-20 18:18:00,
2013-01-20 13:23:00,24.7,12.0,30.29,SW,225,1.1,5.4,58,0.00,,,0.00,WUHU216HW,2013-01-20 18:23:00,
2013-01-20 13:28:00,24.8,12.5,30.29,WSW,248,1.8,3.1,59,0.00,,,0.00,WUHU216HW,2013-01-20 18:28:00,
2013-01-20 13:33:00,24.8,12.5,30.29,North,0,6.3,6.3,59,0.00,,,0.00,WUHU216HW,2013-01-20 18:33:00,
2013-01-20 13:38:00,24.7,11.5,30.29,NW,315,3.6,6.3,57,0.00,,,0.00,WUHU216HW,2013-01-20 18:38:00,
2013-01-20 13:43:00,24.1,10.6,30.28,West,270,4.7,4.7,56,0.00,,,0.00,WUHU216HW,2013-01-20 18:43:00,
2013-01-20 13:48:00,24.1,11.4,30.29,WNW,293,1.6,4.7,58,0.00,,,0.00,WUHU216HW,2013-01-20 18:48:00,
2013-01-20 13:53:00,24.1,11.8,30.29,SSW,203,4.0,7.8,59,0.00,,,0.00,WUHU216HW,2013-01-20 18:53:00,
2013-01-20 13:58:00,24.5,12.2,30.28,SE,135,3.1,7.8,59,0.00,,,0.00,WUHU216HW,2013-01-20 18:58:00,
2013-01-20 14:03:00,24.7,12.0,30.28,South,180,1.8,3.6,58,0.00,,,0.00,WUHU216HW,2013-01-20 19:03:00,
2013-01-20 14:08:00,24.8,12.2,30.28,South,180,1.8,3.4,58,0.00,,,0.00,WUHU216HW,2013-01-20 19:08:00,
2013-01-20 14:13:00,24.8,11.7,30.27,WSW,248,1.3,6.3,57,0.00,,,0.00,WUHU216HW,2013-01-20 19:13:00,
2013-01-20 14:18:00,24.8,12.5,30.27,West,270,4.0,6.3,59,0.00,,,0.00,WUHU216HW,2013-01-20 19:18:00,
2013-01-20 14:23:00,25.2,12.9,30.27,North,0,1.8,4.0,59,0.00,,,0.00,WUHU216HW,2013-01-20 19:23:00,
2013-01-20 14:28:00,26.1,13.2,30.27,NW,315,2.9,4.7,58,0.00,,,0.00,WUHU216HW,2013-01-20 19:28:00,
2013-01-20 14:33:00,26.3,12.6,30.27,NNW,338,4.0,4.7,56,0.00,,,0.00,WUHU216HW,2013-01-20 19:33:00,
2013-01-20 14:38:00,26.1,12.4,30.27,WSW,248,2.7,4.0,56,0.00,,,0.00,WUHU216HW,2013-01-20 19:38:00,
2013-01-20 14:43:00,25.9,12.2,30.27,North,0,0.4,3.6,56,0.00,,,0.00,WUHU216HW,2013-01-20 19:43:00,
2013-01-20 14:48:00,25.6,12.8,30.27,NNE,23,2.9,2.9,58,0.00,,,0.00,WUHU216HW,2013-01-20 19:48:00,
2013-01-20 14:53:00,25.6,12.8,30.27,NNE,23,2.5,3.4,58,0.00,,,0.00,WUHU216HW,2013-01-20 19:53:00,
2013-01-20 14:58:00,26.3,13.4,30.26,SW,225,1.1,3.4,58,0.00,,,0.00,WUHU216HW,2013-01-20 19:58:00,
2013-01-20 15:03:00,26.6,13.3,30.26,SSE,158,0.4,5.4,57,0.00,,,0.00,WUHU216HW,2013-01-20 20:03:00,
2013-01-20 15:08:00,26.5,13.1,30.26,WSW,248,2.5,5.4,57,0.00,,,0.00,WUHU216HW,2013-01-20 20:08:00,
2013-01-20 15:13:00,26.6,12.5,30.27,SSE,158,2.5,2.9,55,0.00,,,0.00,WUHU216HW,2013-01-20 20:13:00,
2013-01-20 15:18:00,26.6,13.0,30.27,SSE,158,0.7,2.9,56,0.00,,,0.00,WUHU216HW,2013-01-20 20:18:00,
2013-01-20 15:23:00,26.8,11.9,30.28,NNW,338,1.6,3.1,53,0.00,,,0.00,WUHU216HW,2013-01-20 20:23:00,
2013-01-20 15:28:00,26.8,11.9,30.28,WNW,293,1.8,3.1,53,0.00,,,0.00,WUHU216HW,2013-01-20 20:28:00,
2013-01-20 15:33:00,27.2,11.8,30.28,WSW,248,2.0,3.4,52,0.00,,,0.00,WUHU216HW,2013-01-20 20:33:00,
2013-01-20 15:38:00,27.4,11.6,30.29,SW,225,3.8,3.8,51,0.00,,,0.00,WUHU216HW,2013-01-20 20:38:00,
2013-01-20 15:43:00,27.2,11.8,30.29,WSW,248,0.9,3.8,52,0.00,,,0.00,WUHU216HW,2013-01-20 20:43:00,
2013-01-20 15:48:00,27.0,11.6,30.30,WSW,248,3.4,3.4,52,0.00,,,0.00,WUHU216HW,2013-01-20 20:48:00,
2013-01-20 15:53:00,26.5,11.5,30.30,West,270,0.0,3.4,53,0.00,,,0.00,WUHU216HW,2013-01-20 20:53:00,
2013-01-20 15:58:00,26.3,11.3,30.30,North,0,1.8,2.5,53,0.00,,,0.00,WUHU216HW,2013-01-20 20:58:00,
2013-01-20 16:03:00,26.3,11.8,30.31,SE,135,1.8,2.5,54,0.00,,,0.00,WUHU216HW,2013-01-20 21:03:00,
2013-01-20 16:08:00,26.3,11.3,30.30,SSW,203,0.4,2.9,53,0.00,,,0.00,WUHU216HW,2013-01-20 21:08:00,
2013-01-20 16:13:00,26.1,12.1,30.30,NNW,338,2.7,2.9,55,0.00,,,0.00,WUHU216HW,2013-01-20 21:13:00,
2013-01-20 16:18:00,26.1,12.1,30.30,NW,315,2.0,2.7,55,0.00,,,0.00,WUHU216HW,2013-01-20 21:18:00,
2013-01-20 16:23:00,26.1,12.1,30.30,NW,315,1.3,2.7,55,0.00,,,0.00,WUHU216HW,2013-01-20 21:23:00,
2013-01-20 16:28:00,25.9,12.2,30.30,SSW,203,2.5,3.1,56,0.00,,,0.00,WUHU216HW,2013-01-20 21:28:00,
2013-01-20 16:33:00,25.7,12.5,30.30,SW,225,5.6,5.6,57,0.00,,,0.00,WUHU216HW,2013-01-20 21:33:00,
2013-01-20 16:38:00,25.6,12.3,30.31,NE,45,1.1,5.6,57,0.00,,,0.00,WUHU216HW,2013-01-20 21:38:00,
2013-01-20 16:43:00,25.6,12.8,30.31,NNE,23,2.5,4.0,58,0.00,,,0.00,WUHU216HW,2013-01-20 21:43:00,
2013-01-20 16:48:00,25.4,12.6,30.31,South,180,2.0,2.5,58,0.00,,,0.00,WUHU216HW,2013-01-20 21:48:00,
2013-01-20 16:53:00,25.2,12.9,30.30,WNW,293,1.8,3.8,59,0.00,,,0.00,WUHU216HW,2013-01-20 21:53:00,
2013-01-20 16:58:00,25.2,12.9,30.31,North,0,2.2,3.8,59,0.00,,,0.00,WUHU216HW,2013-01-20 21:58:00,
2013-01-20 17:03:00,25.2,12.9,30.31,NW,315,0.4,3.4,59,0.00,,,0.00,WUHU216HW,2013-01-20 22:03:00,
2013-01-20 17:08:00,25.2,12.9,30.31,SW,225,1.1,4.0,59,0.00,,,0.00,WUHU216HW,2013-01-20 22:08:00,
2013-01-20 17:13:00,25.2,12.9,30.31,West,270,1.1,4.0,59,0.00,,,0.00,WUHU216HW,2013-01-20 22:13:00,
2013-01-20 17:18:00,25.2,12.9,30.31,South,180,1.1,2.2,59,0.00,,,0.00,WUHU216HW,2013-01-20 22:18:00,
2013-01-20 17:23:00,25.4,13.1,30.31,WNW,293,0.4,2.2,59,0.00,,,0.00,WUHU216HW,2013-01-20 22:23:00,
2013-01-20 17:28:00,25.6,13.2,30.31,SW,225,1.3,2.0,59,0.00,,,0.00,WUHU216HW,2013-01-20 22:28:00,
2013-01-20 17:33:00,25.6,13.2,30.31,West,270,2.0,2.9,59,0.00,,,0.00,WUHU216HW,2013-01-20 22:33:00,
2013-01-20 17:38:00,25.4,13.1,30.31,SW,225,1.8,2.9,59,0.00,,,0.00,WUHU216HW,2013-01-20 22:38:00,
2013-01-20 17:43:00,25.2,12.4,30.31,West,270,0.2,2.9,58,0.00,,,0.00,WUHU216HW,2013-01-20 22:43:00,
2013-01-20 17:48:00,25.2,12.4,30.31,NNE,23,1.8,3.4,58,0.00,,,0.00,WUHU216HW,2013-01-20 22:48:00,
2013-01-20 17:53:00,25.0,12.3,30.31,SW,225,2.5,3.4,58,0.00,,,0.00,WUHU216HW,2013-01-20 22:53:00,
2013-01-20 17:58:00,25.0,12.3,30.32,West,270,1.3,3.1,58,0.00,,,0.00,WUHU216HW,2013-01-20 22:58:00,
2013-01-20 18:03:00,25.2,12.9,30.32,SSW,203,1.1,2.0,59,0.00,,,0.00,WUHU216HW,2013-01-20 23:03:00,
2013-01-20 18:08:00,25.2,12.4,30.32,SSW,203,2.7,5.4,58,0.00,,,0.00,WUHU216HW,2013-01-20 23:08:00,
2013-01-20 18:13:00,25.0,12.3,30.32,WNW,293,0.4,5.4,58,0.00,,,0.00,WUHU216HW,2013-01-20 23:13:00,
2013-01-20 18:18:00,25.0,12.3,30.33,WNW,293,1.1,6.0,58,0.00,,,0.00,WUHU216HW,2013-01-20 23:18:00,
2013-01-20 18:23:00,25.0,12.3,30.32,South,180,1.1,6.0,58,0.00,,,0.00,WUHU216HW,2013-01-20 23:23:00,
2013-01-20 18:28:00,25.0,12.3,30.32,South,180,0.7,3.8,58,0.00,,,0.00,WUHU216HW,2013-01-20 23:28:00,
2013-01-20 18:33:00,25.2,12.4,30.32,WNW,293,2.5,2.5,58,0.00,,,0.00,WUHU216HW,2013-01-20 23:33:00,
2013-01-20 18:38:00,25.2,12.4,30.32,SSE,158,1.6,2.9,58,0.00,,,0.00,WUHU216HW,2013-01-20 23:38:00,
2013-01-20 18:43:00,25.2,12.1,30.32,South,180,0.9,3.4,57,0.00,,,0.00,WUHU216HW,2013-01-20 23:43:00,
2013-01-20 18:48:00,25.2,12.4,30.31,NNW,338,2.0,3.4,58,0.00,,,0.00,WUHU216HW,2013-01-20 23:48:00,
2013-01-20 18:53:00,25.0,12.3,30.32,WSW,248,1.1,4.5,58,0.00,,,0.00,WUHU216HW,2013-01-20 23:53:00,
2013-01-20 18:58:00,24.8,12.2,30.31,SW,225,2.7,4.5,58,0.00,,,0.00,WUHU216HW,2013-01-20 23:58:00,
2013-01-20 19:03:00,24.8,12.5,30.32,WSW,248,2.0,2.7,59,0.00,,,0.00,WUHU216HW,2013-01-21 00:03:00,
2013-01-20 19:08:00,25.0,12.7,30.32,NW,315,3.4,4.7,59,0.00,,,0.00,WUHU216HW,2013-01-21 00:08:00,
2013-01-20 19:13:00,24.8,12.5,30.32,NNW,338,1.1,4.7,59,0.00,,,0.00,WUHU216HW,2013-01-21 00:13:00,
2013-01-20 19:18:00,24.8,12.5,30.32,WSW,248,3.4,4.5,59,0.00,,,0.00,WUHU216HW,2013-01-21 00:18:00,
2013-01-20 19:23:00,24.8,12.5,30.33,NW,315,3.4,3.4,59,0.00,,,0.00,WUHU216HW,2013-01-21 00:23:00,
2013-01-20 19:28:00,24.8,12.5,30.33,SE,135,2.7,3.4,59,0.00,,,0.00,WUHU216HW,2013-01-21 00:28:00,
2013-01-20 19:33:00,24.8,12.5,30.33,NW,315,3.6,4.7,59,0.00,,,0.00,WUHU216HW,2013-01-21 00:33:00,
2013-01-20 19:38:00,24.8,12.5,30.33,SW,225,1.1,4.7,59,0.00,,,0.00,WUHU216HW,2013-01-21 00:38:00,
2013-01-20 19:43:00,24.8,12.5,30.32,SSW,203,1.3,4.0,59,0.00,,,0.00,WUHU216HW,2013-01-21 00:43:00,
2013-01-20 19:48:00,24.7,12.3,30.32,SW,225,1.8,4.0,59,0.00,,,0.00,WUHU216HW,2013-01-21 00:48:00,
2013-01-20 19:53:00,24.7,12.3,30.32,SW,225,1.3,4.0,59,0.00,,,0.00,WUHU216HW,2013-01-21 00:53:00,
2013-01-20 19:58:00,24.8,12.5,30.32,South,180,4.0,4.0,59,0.00,,,0.00,WUHU216HW,2013-01-21 00:58:00,
2013-01-20 20:03:00,24.8,12.5,30.32,SSW,203,1.6,4.0,59,0.00,,,0.00,WUHU216HW,2013-01-21 01:03:00,
2013-01-20 20:08:00,24.7,12.3,30.32,West,270,0.4,3.8,59,0.00,,,0.00,WUHU216HW,2013-01-21 01:08:00,
2013-01-20 20:13:00,24.7,12.8,30.33,SW,225,0.7,2.2,60,0.00,,,0.00,WUHU216HW,2013-01-21 01:13:00,
2013-01-20 20:18:00,24.7,12.8,30.32,NNW,338,1.8,3.1,60,0.00,,,0.00,WUHU216HW,2013-01-21 01:18:00,
2013-01-20 20:23:00,24.7,12.3,30.33,NW,315,0.4,3.1,59,0.00,,,0.00,WUHU216HW,2013-01-21 01:23:00,
2013-01-20 20:28:00,24.7,12.3,30.33,WSW,248,4.5,4.5,59,0.00,,,0.00,WUHU216HW,2013-01-21 01:28:00,
2013-01-20 20:33:00,24.7,12.3,30.33,WNW,293,2.5,4.5,59,0.00,,,0.00,WUHU216HW,2013-01-21 01:33:00,
2013-01-20 20:38:00,24.7,12.3,30.33,WSW,248,1.3,4.0,59,0.00,,,0.00,WUHU216HW,2013-01-21 01:38:00,
2013-01-20 20:43:00,24.5,12.2,30.32,SSW,203,2.5,4.0,59,0.00,,,0.00,WUHU216HW,2013-01-21 01:43:00,
2013-01-20 20:48:00,24.5,12.2,30.32,WNW,293,1.1,2.5,59,0.00,,,0.00,WUHU216HW,2013-01-21 01:48:00,
2013-01-20 20:53:00,24.5,12.2,30.32,WSW,248,1.8,2.9,59,0.00,,,0.00,WUHU216HW,2013-01-21 01:53:00,
2013-01-20 20:58:00,24.5,12.2,30.32,WNW,293,1.6,2.9,59,0.00,,,0.00,WUHU216HW,2013-01-21 01:58:00,
2013-01-20 21:03:00,24.3,12.0,30.32,West,270,2.2,3.6,59,0.00,,,0.00,WUHU216HW,2013-01-21 02:03:00,
2013-01-20 21:08:00,24.3,12.0,30.33,NNW,338,1.1,3.6,59,0.00,,,0.00,WUHU216HW,2013-01-21 02:08:00,
2013-01-20 21:13:00,24.1,11.8,30.32,South,180,1.8,3.1,59,0.00,,,0.00,WUHU216HW,2013-01-21 02:13:00,
2013-01-20 21:18:00,24.1,11.8,30.32,WNW,293,1.8,4.7,59,0.00,,,0.00,WUHU216HW,2013-01-21 02:18:00,
2013-01-20 21:23:00,24.1,12.2,30.32,SW,225,2.5,4.7,60,0.00,,,0.00,WUHU216HW,2013-01-21 02:23:00,
2013-01-20 21:28:00,24.1,11.8,30.32,SSW,203,0.7,4.3,59,0.00,,,0.00,WUHU216HW,2013-01-21 02:28:00,
2013-01-20 21:33:00,24.1,11.8,30.32,SW,225,2.5,6.5,59,0.00,,,0.00,WUHU216HW,2013-01-21 02:33:00,
2013-01-20 21:38:00,23.9,11.6,30.32,WNW,293,1.8,6.5,59,0.00,,,0.00,WUHU216HW,2013-01-21 02:38:00,
2013-01-20 21:43:00,23.9,11.6,30.32,West,270,3.4,4.5,59,0.00,,,0.00,WUHU216HW,2013-01-21 02:43:00,
2013-01-20 21:48:00,23.8,11.5,30.32,South,180,2.5,4.5,59,0.00,,,0.00,WUHU216HW,2013-01-21 02:48:00,
2013-01-20 21:53:00,23.8,11.5,30.32,NW,315,1.3,4.3,59,0.00,,,0.00,WUHU216HW,2013-01-21 02:53:00,
2013-01-20 21:58:00,23.8,11.5,30.32,SW,225,1.1,4.3,59,0.00,,,0.00,WUHU216HW,2013-01-21 02:58:00,
2013-01-20 22:03:00,23.8,11.5,30.32,SSW,203,0.9,3.8,59,0.00,,,0.00,WUHU216HW,2013-01-21 03:03:00,
2013-01-20 22:09:00,23.6,11.4,30.32,WSW,248,2.5,3.8,59,0.00,,,0.00,WUHU216HW,2013-01-21 03:09:00,
2013-01-20 22:14:00,23.6,11.4,30.32,WNW,293,3.6,3.6,59,0.00,,,0.00,WUHU216HW,2013-01-21 03:14:00,
2013-01-20 22:19:00,23.6,11.4,30.32,SSW,203,1.8,3.6,59,0.00,,,0.00,WUHU216HW,2013-01-21 03:19:00,
2013-01-20 22:23:00,23.4,11.2,30.32,West,270,1.3,3.6,59,0.00,,,0.00,WUHU216HW,2013-01-21 03:23:00,
2013-01-20 22:29:00,23.4,11.2,30.32,SSW,203,3.4,3.4,59,0.00,,,0.00,WUHU216HW,2013-01-21 03:29:00,
2013-01-20 22:33:00,23.4,11.2,30.31,WSW,248,0.4,3.6,59,0.00,,,0.00,WUHU216HW,2013-01-21 03:33:00,
2013-01-20 22:39:00,23.4,11.2,30.31,ESE,113,2.0,4.0,59,0.00,,,0.00,WUHU216HW,2013-01-21 03:39:00,
2013-01-20 22:43:00,23.4,11.2,30.32,SW,225,2.2,4.0,59,0.00,,,0.00,WUHU216HW,2013-01-21 03:43:00,
2013-01-20 22:49:00,23.4,11.5,30.32,SSW,203,1.3,2.9,60,0.00,,,0.00,WUHU216HW,2013-01-21 03:49:00,
2013-01-20 22:54:00,23.2,11.3,30.31,SW,225,1.3,2.5,60,0.00,,,0.00,WUHU216HW,2013-01-21 03:54:00,
2013-01-20 22:59:00,23.2,11.3,30.31,SSW,203,2.5,4.7,60,0.00,,,0.00,WUHU216HW,2013-01-21 03:59:00,
2013-01-20 23:04:00,23.0,10.8,30.31,SW,225,1.3,4.7,59,0.00,,,0.00,WUHU216HW,2013-01-21 04:04:00,
2013-01-20 23:09:00,22.9,11.0,30.31,WSW,248,1.6,4.3,60,0.00,,,0.00,WUHU216HW,2013-01-21 04:09:00,
2013-01-20 23:14:00,22.9,11.3,30.31,WSW,248,2.5,4.3,61,0.00,,,0.00,WUHU216HW,2013-01-21 04:14:00,
2013-01-20 23:19:00,22.9,11.3,30.31,WSW,248,1.1,4.3,61,0.00,,,0.00,WUHU216HW,2013-01-21 04:19:00,
2013-01-20 23:24:00,22.7,11.5,30.31,West,270,1.8,3.4,62,0.00,,,0.00,WUHU216HW,2013-01-21 04:24:00,
2013-01-20 23:29:00,22.7,11.9,30.31,SSW,203,1.1,2.9,63,0.00,,,0.00,WUHU216HW,2013-01-21 04:29:00,
2013-01-20 23:34:00,22.7,12.2,30.30,SSE,158,1.3,1.3,64,0.00,,,0.00,WUHU216HW,2013-01-21 04:34:00,
2013-01-20 23:39:00,22.7,11.9,30.30,SW,225,0.4,1.3,63,0.00,,,0.00,WUHU216HW,2013-01-21 04:39:00,
2013-01-20 23:44:00,22.7,11.9,30.31,NW,315,0.7,2.0,63,0.00,,,0.00,WUHU216HW,2013-01-21 04:44:00,
2013-01-20 23:49:00,22.7,11.9,30.31,SE,135,2.2,2.2,63,0.00,,,0.00,WUHU216HW,2013-01-21 04:49:00,
2013-01-20 23:54:00,22.7,12.2,30.30,SW,225,1.6,2.9,64,0.00,,,0.00,WUHU216HW,2013-01-21 04:54:00,
2013-01-20 23:59:00,22.7,12.6,30.30,SSW,203,0.9,2.9,65,0.00,,,0.00,WUHU216HW,2013-01-21 04:59:00,